Location: Chateh
(58.6667°N, 118.6000°W)
Time: 08:52:15
(UTC+00:00)

O/OREOS (USA 219) - Pass Details

Date: 08 December 2023
Orbit: 621 x 646 km, 72.0° (Epoch: 22 May)

Event Time Altitude Azimuth Distance (km) Brightness Sun altitude
Exits shadow 12:24:01 16° 17° (NNE) 1,661 ? -29.9°
Drops below altitude 10° 12:26:19 10° 48° (NE) 2,012 ? -29.6°
Sets 12:29:25 0° 70° (ENE) 2,922 ? -29.2°
